Pittsfield, IL

3:42 AM CDT on September 28, 2016 (GMT -0500)
Pittsfield Penstone Municipal

Weather History for KPPQ - January, 2014

Change the Weather History Date:

Monday, January 13, 2014

  Actual Average (KUIN) Record (KUIN)
Temperature  
Mean Temperature 40 °F 26 °F  
Max Temperature 50 °F 34 °F 58 °F (1932)
Min Temperature 30 °F 18 °F -20 °F (1912)
Degree Days  
Heating Degree Days 25 39  
Month to date heating degree days 503  
Since 1 July heating degree days 2694  
Cooling Degree Days 0 0  
Month to date cooling degree days 0  
Year to date cooling degree days 0  
Moisture  
Dew Point 33 °F    
Average Humidity 72    
Maximum Humidity 94    
Minimum Humidity 54    
Precipitation  
Precipitation 0.00 in 0.04 in 1.73 in (1911)
Month to date precipitation 0.67  
Year to date precipitation 0.67  
Sea Level Pressure  
Sea Level Pressure 29.73 in    
Wind  
Wind Speed 9 mph (WSW)    
Max Wind Speed 15 mph    
Max Gust Speed 23 mph    
Visibility 10 miles    
Events      
T = Trace of Precipitation, MM = Missing Value Source: NWS Daily Summary

Daily Weather History Graph

Daily Weather History Graph

Search for Another Location

Airport or City:

Trip Planner

Search our weather history database for the weather conditions in past years. The results will help you decide how hot, cold, wet, or windy it might be!

Date:

Astronomy

Jan. 13, 2014 Rise Set
Actual Time 7:22 AM CST 5:01 PM CST
Civil Twilight 6:53 AM CST 5:30 PM CST
Nautical Twilight 6:19 AM CST 6:04 PM CST
Astronomical Twilight 5:47 AM CST 6:36 PM CST
Moon 3:16 PM CST (1/13) 5:11 AM CST (1/13)
Length of Visible Light 10h 37m
Length of Day
9h 38m
Waxing Gibbous, 95% of the Moon is Illuminated
Jan 13
Waxing Gibbous
Jan 15
Full
Jan 23
Last Quarter
Jan 30
New
Feb 6
First Quarter

Hourly Weather History & Observations

Time (CST) Temp. Windchill Dew Point Humidity Pressure Visibility Wind Dir Wind Speed Gust Speed Precip Events Conditions
12:15 AM 48.6 °F - 34.7 °F 59% 29.60 in 10.0 mi South 11.5 mph - N/A   Clear
12:35 AM 48.4 °F - 34.7 °F 59% 29.60 in 10.0 mi South 13.8 mph 19.6 mph N/A   Clear
12:55 AM 48.4 °F - 34.7 °F 59% 29.60 in 10.0 mi South 12.7 mph 17.3 mph N/A   Clear
1:15 AM 49.1 °F - 34.7 °F 58% 29.60 in 10.0 mi South 12.7 mph 20.7 mph N/A   Clear
1:35 AM 48.6 °F - 34.9 °F 59% 29.60 in 10.0 mi South 12.7 mph - N/A   Clear
1:55 AM 48.7 °F - 34.7 °F 58% 29.60 in 10.0 mi South 12.7 mph - N/A   Clear
2:15 AM 49.3 °F - 34.7 °F 57% 29.60 in 10.0 mi South 11.5 mph - N/A   Clear
2:35 AM 48.9 °F - 34.5 °F 58% 29.60 in 10.0 mi SSW 9.2 mph - N/A   Clear
2:55 AM 48.4 °F - 34.3 °F 58% 29.60 in 10.0 mi SSW 9.2 mph - N/A   Clear
3:15 AM 47.7 °F - 34.2 °F 60% 29.60 in 10.0 mi SSW 8.1 mph - N/A   Clear
3:35 AM 46.9 °F - 34.2 °F 61% 29.59 in 10.0 mi South 8.1 mph - N/A   Clear
3:55 AM 46.8 °F - 34.0 °F 61% 29.59 in 10.0 mi SSW 5.8 mph - N/A   Clear
4:15 AM 46.6 °F - 34.0 °F 62% 29.60 in 10.0 mi SSW 6.9 mph - N/A   Clear
4:35 AM 44.6 °F 40.2 °F 33.6 °F 65% 29.60 in 10.0 mi WSW 8.1 mph - N/A   Clear
4:55 AM 45.3 °F - 33.1 °F 62% 29.60 in 10.0 mi Calm Calm - N/A   Clear
5:15 AM 43.5 °F - 32.9 °F 66% 29.59 in 10.0 mi Calm Calm - N/A   Clear
5:35 AM 44.1 °F - 32.9 °F 65% 29.59 in 10.0 mi Calm Calm - N/A   Clear
5:55 AM 42.3 °F 37.9 °F 32.4 °F 68% 29.60 in 10.0 mi WSW 6.9 mph - N/A   Clear
6:15 AM 40.3 °F 34.4 °F 32.0 °F 72% 29.62 in 10.0 mi West 9.2 mph - N/A   Clear
6:35 AM 40.8 °F 35.6 °F 32.0 °F 71% 29.63 in 10.0 mi West 8.1 mph - N/A   Clear
6:55 AM 39.0 °F 32.8 °F 32.0 °F 76% 29.63 in 10.0 mi West 9.2 mph - N/A   Clear
7:15 AM 38.3 °F 32.5 °F 32.0 °F 78% 29.65 in 10.0 mi West 8.1 mph - N/A   Clear
7:35 AM 37.9 °F 32.7 °F 32.0 °F 79% 29.66 in 10.0 mi West 6.9 mph - N/A   Clear
7:55 AM 37.6 °F 32.3 °F 32.0 °F 80% 29.67 in 10.0 mi West 6.9 mph - N/A   Clear
8:15 AM 37.6 °F 30.5 °F 32.0 °F 80% 29.68 in 10.0 mi West 10.4 mph - N/A   Clear
8:35 AM 37.9 °F 32.7 °F 32.0 °F 79% 29.69 in 10.0 mi West 6.9 mph - N/A   Clear
8:55 AM 38.3 °F 34.8 °F 32.0 °F 78% 29.69 in 10.0 mi SW 4.6 mph - N/A   Clear
9:15 AM 38.7 °F 33.6 °F 32.0 °F 77% 29.71 in 10.0 mi West 6.9 mph 19.6 mph N/A   Clear
9:35 AM 40.5 °F 34.1 °F 32.5 °F 73% 29.73 in 10.0 mi West 10.4 mph - N/A   Clear
9:55 AM 41.0 °F 36.4 °F 32.7 °F 72% 29.73 in 10.0 mi West 6.9 mph - N/A   Clear
10:15 AM 42.8 °F 37.5 °F 33.3 °F 69% 29.73 in 10.0 mi West 9.2 mph - N/A   Clear
10:35 AM 44.6 °F 39.7 °F 33.4 °F 65% 29.73 in 10.0 mi West 9.2 mph - N/A   Clear
10:55 AM 46.0 °F 41.0 °F 34.0 °F 63% 29.73 in 10.0 mi West 10.4 mph - N/A   Clear
11:15 AM 46.9 °F - 34.0 °F 61% 29.74 in 10.0 mi West 10.4 mph - N/A   Clear
11:35 AM 46.9 °F - 34.0 °F 61% 29.74 in 10.0 mi West 15.0 mph - N/A   Clear
11:55 AM 47.5 °F - 34.3 °F 60% 29.73 in 10.0 mi West 13.8 mph - N/A   Clear
12:15 PM 47.8 °F - 34.5 °F 60% 29.73 in 10.0 mi West 13.8 mph 18.4 mph N/A   Scattered Clouds
12:35 PM 49.1 °F - 35.4 °F 59% 29.72 in 10.0 mi West 10.4 mph 17.3 mph N/A   Scattered Clouds
12:55 PM 49.5 °F - 34.0 °F 55% 29.72 in 10.0 mi West 11.5 mph - N/A   Clear
1:15 PM 50.0 °F - 34.3 °F 55% 29.72 in 10.0 mi West 12.7 mph 17.3 mph N/A   Clear
1:35 PM 50.2 °F - 34.5 °F 55% 29.71 in 10.0 mi West 11.5 mph - N/A   Clear
1:55 PM 50.2 °F - 34.0 °F 54% 29.72 in 10.0 mi West 13.8 mph 20.7 mph N/A   Clear
2:15 PM 50.4 °F - 34.7 °F 55% 29.73 in 10.0 mi West 15.0 mph - N/A   Clear
2:35 PM 49.5 °F - 34.3 °F 56% 29.73 in 10.0 mi West 9.2 mph 17.3 mph N/A   Scattered Clouds
2:55 PM 49.5 °F - 35.6 °F 59% 29.75 in 10.0 mi WNW 13.8 mph 17.3 mph N/A   Mostly Cloudy
3:15 PM 48.0 °F - 35.2 °F 61% 29.76 in 10.0 mi WNW 12.7 mph 18.4 mph N/A   Overcast
3:35 PM 47.1 °F - 33.8 °F 60% 29.77 in 10.0 mi WNW 13.8 mph 23.0 mph N/A   Scattered Clouds
3:55 PM 45.1 °F 39.1 °F 35.1 °F 68% 29.78 in 10.0 mi NW 12.7 mph - N/A   Clear
4:15 PM 44.1 °F 39.0 °F 34.9 °F 70% 29.79 in 10.0 mi NW 9.2 mph - N/A   Clear
4:35 PM 42.8 °F 37.5 °F 34.0 °F 71% 29.80 in 10.0 mi WNW 9.2 mph - N/A   Clear
4:55 PM 41.5 °F 36.4 °F 33.6 °F 73% 29.81 in 10.0 mi NW 8.1 mph - N/A   Clear
5:15 PM 38.8 °F 32.6 °F 32.9 °F 79% 29.82 in 10.0 mi NW 9.2 mph - N/A   Clear
5:35 PM 37.6 °F 34.0 °F 32.0 °F 80% 29.83 in 10.0 mi NW 4.6 mph - N/A   Clear
5:55 PM 35.8 °F 30.9 °F 31.8 °F 86% 29.84 in 10.0 mi WNW 5.8 mph - N/A   Clear
6:15 PM 35.1 °F 30.1 °F 31.5 °F 87% 29.84 in 10.0 mi NW 5.8 mph - N/A   Clear
6:35 PM 34.3 °F 30.2 °F 31.3 °F 89% 29.85 in 10.0 mi NW 4.6 mph - N/A   Clear
6:55 PM 34.2 °F 31.2 °F 31.1 °F 89% 29.86 in 10.0 mi WNW 3.5 mph - N/A   Clear
7:15 PM 34.3 °F 31.4 °F 30.9 °F 87% 29.86 in 10.0 mi WNW 3.5 mph - N/A   Clear
7:35 PM 34.0 °F 31.0 °F 30.4 °F 87% 29.86 in 10.0 mi WNW 3.5 mph - N/A   Clear
7:55 PM 32.7 °F 29.6 °F 29.5 °F 88% 29.86 in 10.0 mi West 3.5 mph - N/A   Clear
8:15 PM 32.0 °F 28.7 °F 28.9 °F 88% 29.86 in 10.0 mi West 3.5 mph - N/A   Clear
8:35 PM 32.0 °F - 28.9 °F 88% 29.85 in 10.0 mi Calm Calm - N/A   Clear
8:55 PM 32.0 °F - 29.3 °F 90% 29.85 in 10.0 mi Calm Calm - N/A   Clear
9:15 PM 31.3 °F 26.6 °F 28.8 °F 90% 29.85 in 10.0 mi SSW 4.6 mph - N/A   Clear
9:35 PM 30.6 °F 27.1 °F 28.9 °F 94% 29.86 in 10.0 mi SSW 3.5 mph - N/A   Clear
9:55 PM 30.2 °F - 28.4 °F 93% 29.85 in 10.0 mi Calm Calm - N/A   Clear
10:15 PM 30.0 °F 26.5 °F 28.2 °F 93% 29.86 in 10.0 mi SSW 3.5 mph - N/A   Clear
10:35 PM 30.7 °F 26.0 °F 28.9 °F 93% 29.86 in 10.0 mi SSW 4.6 mph - N/A   Clear
10:55 PM 30.9 °F 27.5 °F 28.9 °F 92% 29.85 in 10.0 mi SSW 3.5 mph - N/A   Clear
11:15 PM 31.1 °F 27.7 °F 29.1 °F 92% 29.85 in 10.0 mi South 3.5 mph - N/A   Clear
11:35 PM 31.1 °F 27.7 °F 28.9 °F 92% 29.85 in 10.0 mi South 3.5 mph - N/A   Clear
11:55 PM 30.4 °F 26.9 °F 28.4 °F 92% 29.84 in 7.0 mi South 3.5 mph - N/A   Clear